| time (UTC) | temp F | wind direction | speed MPH | gust MPH | rain 1hr in | rain 24hr in | rain mn in | humidity % | barometer mb |
| 20260510213516 | 56 | 39 | 0.0 | 0.0 | 0.00 | 0.66 | 0.66 | 98 | 1014.5 |
| 20260510212518 | 56 | 39 | 0.0 | 0.0 | 0.00 | 0.66 | 0.66 | 98 | 1014.5 |
| 20260510212017 | 56 | 39 | 0.0 | 0.0 | 0.00 | 0.66 | 0.66 | 98 | 1014.6 |
| 20260510211517 | 56 | 39 | 0.0 | 0.0 | 0.00 | 0.66 | 0.66 | 98 | 1014.5 |
| 20260510210519 | 56 | 39 | 0.0 | 0.0 | 0.00 | 0.66 | 0.66 | 97 | 1014.5 |
| 20260510210018 | 56 | 39 | 0.0 | 0.0 | 0.00 | 0.66 | 0.66 | 97 | 1014.5 |
| 20260510205012 | 56 | 31 | 0.0 | 0.0 | 0.00 | 0.66 | 0.66 | 97 | 1014.5 |
| 20260510204013 | 56 | 39 | 0.0 | 1.0 | 0.00 | 0.66 | 0.66 | 97 | 1014.4 |
| 20260510203514 | 56 | 40 | 0.0 | 2.0 | 0.00 | 0.66 | 0.66 | 97 | 1014.4 |
| 20260510203013 | 56 | 32 | 0.0 | 2.0 | 0.00 | 0.66 | 0.66 | 97 | 1014.4 |
| 20260510202514 | 56 | 58 | 0.0 | 4.0 | 0.00 | 0.66 | 0.66 | 97 | 1014.4 |
| 20260510202014 | 56 | 57 | 1.0 | 4.0 | 0.00 | 0.66 | 0.66 | 97 | 1014.4 |
| 20260510201510 | 56 | 61 | 0.0 | 4.0 | 0.00 | 0.66 | 0.66 | 97 | 1014.2 |
| 20260510200007 | 56 | 58 | 0.0 | 3.0 | 0.00 | 0.66 | 0.66 | 97 | 1014.2 |
| 20260510195507 | 56 | 57 | 1.0 | 4.0 | 0.00 | 0.66 | 0.66 | 97 | 1014.4 |
| 20260510195006 | 56 | 41 | 1.0 | 4.0 | 0.00 | 0.66 | 0.66 | 97 | 1014.2 |
| 20260510194507 | 56 | 63 | 1.0 | 5.0 | 0.00 | 0.66 | 0.66 | 97 | 1014.4 |
| 20260510193507 | 56 | 28 | 1.0 | 3.0 | 0.00 | 0.66 | 0.66 | 97 | 1014.2 |
| 20260510193006 | 56 | 34 | 1.0 | 4.0 | 0.00 | 0.66 | 0.66 | 97 | 1014.1 |
| 20260510192504 | 56 | 29 | 1.0 | 4.0 | 0.00 | 0.66 | 0.66 | 97 | 1014.1 |
| 20260510192004 | 56 | 26 | 1.0 | 3.0 | 0.00 | 0.66 | 0.66 | 97 | 1014.1 |
| 20260510191500 | 56 | 58 | 1.0 | 3.0 | 0.00 | 0.66 | 0.66 | 98 | 1014.1 |
| 20260510191003 | 56 | 52 | 0.0 | 3.0 | 0.00 | 0.66 | 0.66 | 97 | 1014.1 |
| 20260510190002 | 56 | 36 | 0.0 | 2.0 | 0.00 | 0.66 | 0.66 | 97 | 1013.8 |
| 20260510185501 | 56 | 32 | 0.0 | 2.0 | 0.00 | 0.66 | 0.66 | 97 | 1013.8 |
| 20260510185001 | 56 | 47 | 0.0 | 2.0 | 0.00 | 0.66 | 0.66 | 97 | 1013.7 |
| 20260510184501 | 56 | 27 | 0.0 | 2.0 | 0.00 | 0.66 | 0.66 | 97 | 1013.7 |
| 20260510184001 | 56 | 4 | 1.0 | 4.0 | 0.00 | 0.66 | 0.66 | 97 | 1013.7 |
| 20260510183500 | 57 | 13 | 1.0 | 4.0 | 0.00 | 0.66 | 0.66 | 97 | 1013.7 |
| 20260510182504 | 57 | 22 | 1.0 | 4.0 | 0.01 | 0.66 | 0.66 | 97 | 1013.7 |
| 20260510182004 | 57 | 27 | 1.0 | 4.0 | 0.01 | 0.66 | 0.66 | 97 | 1013.6 |
| 20260510181517 | 57 | 19 | 1.0 | 5.0 | 0.01 | 0.66 | 0.66 | 97 | 1013.6 |
| 20260510180958 | 57 | 11 | 2.0 | 5.0 | 0.01 | 0.66 | 0.66 | 97 | 1013.6 |
| 20260510180452 | 57 | 32 | 2.0 | 5.0 | 0.01 | 0.66 | 0.66 | 97 | 1013.5 |
| 20260510175952 | 57 | 23 | 2.0 | 4.0 | 0.01 | 0.66 | 0.66 | 97 | 1013.6 |
| 20260510175452 | 57 | 37 | 2.0 | 4.0 | 0.01 | 0.66 | 0.66 | 97 | 1013.5 |
| 20260510174952 | 57 | 37 | 1.0 | 4.0 | 0.01 | 0.66 | 0.66 | 97 | 1013.5 |
| 20260510174448 | 57 | 37 | 2.0 | 5.0 | 0.01 | 0.66 | 0.66 | 97 | 1013.5 |
| 20260510173948 | 57 | 15 | 1.0 | 5.0 | 0.01 | 0.66 | 0.66 | 96 | 1013.5 |
| 20260510173451 | 57 | 34 | 1.0 | 3.0 | 0.01 | 0.66 | 0.66 | 96 | 1013.5 |
| 20260510172948 | 58 | 23 | 1.0 | 3.0 | 0.01 | 0.66 | 0.66 | 96 | 1013.4 |
| 20260510172449 | 58 | 16 | 1.0 | 3.0 | 0.00 | 0.65 | 0.66 | 96 | 1013.5 |
| 20260510171948 | 58 | 39 | 1.0 | 3.0 | 0.00 | 0.65 | 0.65 | 96 | 1013.3 |
| 20260510171450 | 58 | 25 | 1.0 | 4.0 | 0.00 | 0.65 | 0.65 | 96 | 1013.3 |
| 20260510171000 | 58 | 39 | 2.0 | 5.0 | 0.00 | 0.65 | 0.65 | 96 | 1013.3 |
| 20260510170450 | 58 | 39 | 2.0 | 5.0 | 0.00 | 0.65 | 0.65 | 96 | 1013.4 |
| 20260510165948 | 58 | 19 | 3.0 | 5.0 | 0.00 | 0.65 | 0.65 | 96 | 1013.4 |
| 20260510165442 | 58 | 37 | 3.0 | 5.0 | 0.00 | 0.65 | 0.65 | 95 | 1013.4 |
| 20260510164940 | 58 | 12 | 2.0 | 5.0 | 0.00 | 0.65 | 0.65 | 95 | 1013.4 |
| 20260510164442 | 58 | 18 | 3.0 | 8.0 | 0.00 | 0.65 | 0.65 | 95 | 1013.4 |
| 20260510163939 | 58 | 20 | 3.0 | 8.0 | 0.00 | 0.65 | 0.65 | 95 | 1013.4 |
| 20260510163437 | 58 | 47 | 2.0 | 7.0 | 0.00 | 0.65 | 0.65 | 95 | 1013.4 |
| 20260510162940 | 58 | 56 | 3.0 | 7.0 | 0.00 | 0.65 | 0.65 | 96 | 1013.4 |
| 20260510161935 | 58 | 47 | 3.0 | 8.0 | 0.00 | 0.65 | 0.65 | 95 | 1013.4 |
| 20260510161435 | 58 | 346 | 3.0 | 7.0 | 0.00 | 0.65 | 0.65 | 96 | 1013.5 |
| 20260510160934 | 58 | 35 | 2.0 | 9.0 | 0.00 | 0.65 | 0.65 | 96 | 1013.4 |
| 20260510160435 | 58 | 45 | 2.0 | 9.0 | 0.00 | 0.65 | 0.65 | 96 | 1013.5 |
| 20260510155936 | 58 | 65 | 3.0 | 8.0 | 0.00 | 0.65 | 0.65 | 96 | 1013.5 |
| 20260510155434 | 58 | 68 | 3.0 | 8.0 | 0.01 | 0.65 | 0.65 | 96 | 1013.5 |
| 20260510154932 | 58 | 56 | 3.0 | 7.0 | 0.01 | 0.65 | 0.65 | 96 | 1013.6 |
| 20260510153430 | 57 | 36 | 3.0 | 9.0 | 0.01 | 0.65 | 0.65 | 96 | 1013.6 |
| 20260510152928 | 58 | 61 | 2.0 | 6.0 | 0.01 | 0.65 | 0.65 | 96 | 1013.7 |
| 20260510152432 | 58 | 51 | 2.0 | 6.0 | 0.01 | 0.65 | 0.65 | 96 | 1013.6 |
| 20260510151930 | 58 | 60 | 3.0 | 6.0 | 0.01 | 0.65 | 0.65 | 96 | 1013.7 |
| 20260510151444 | 58 | 30 | 3.0 | 10.0 | 0.01 | 0.65 | 0.65 | 96 | 1013.7 |
| 20260510150929 | 58 | 10 | 3.0 | 10.0 | 0.01 | 0.65 | 0.65 | 96 | 1013.6 |
| 20260510150431 | 58 | 77 | 4.0 | 9.0 | 0.01 | 0.65 | 0.65 | 96 | 1013.7 |
| 20260510145928 | 58 | 336 | 3.0 | 9.0 | 0.01 | 0.65 | 0.65 | 96 | 1013.6 |
| 20260510145430 | 58 | 33 | 3.0 | 8.0 | 0.00 | 0.65 | 0.65 | 96 | 1013.7 |
| 20260510144928 | 58 | 63 | 3.0 | 8.0 | 0.00 | 0.65 | 0.65 | 95 | 1013.8 |
| 20260510144427 | 58 | 355 | 2.0 | 6.0 | 0.00 | 0.65 | 0.65 | 95 | 1013.8 |
| 20260510143928 | 58 | 77 | 2.0 | 6.0 | 0.00 | 0.65 | 0.65 | 95 | 1013.8 |
| 20260510142920 | 58 | 56 | 3.0 | 8.0 | 0.00 | 0.65 | 0.65 | 95 | 1013.9 |
| 20260510142420 | 58 | 36 | 3.0 | 8.0 | 0.00 | 0.65 | 0.65 | 95 | 1013.8 |
| 20260510141920 | 58 | 11 | 3.0 | 8.0 | 0.00 | 0.65 | 0.65 | 94 | 1013.8 |
| 20260510141422 | 58 | 27 | 4.0 | 10.0 | 0.00 | 0.65 | 0.65 | 95 | 1013.8 |
| 20260510140920 | 58 | 49 | 4.0 | 10.0 | 0.00 | 0.65 | 0.65 | 95 | 1013.8 |
| 20260510140420 | 58 | 51 | 4.0 | 9.0 | 0.00 | 0.65 | 0.65 | 95 | 1013.8 |
| 20260510135918 | 57 | 42 | 3.0 | 9.0 | 0.00 | 0.65 | 0.65 | 95 | 1013.9 |
| 20260510135420 | 57 | 55 | 3.0 | 6.0 | 0.00 | 0.65 | 0.65 | 95 | 1014.0 |
| 20260510134921 | 57 | 44 | 2.0 | 6.0 | 0.00 | 0.65 | 0.65 | 96 | 1014.0 |
| 20260510134418 | 57 | 25 | 2.0 | 6.0 | 0.00 | 0.65 | 0.65 | 96 | 1014.0 |
| 20260510133918 | 57 | 49 | 2.0 | 6.0 | 0.02 | 0.65 | 0.65 | 96 | 1014.0 |
| 20260510133419 | 57 | 50 | 3.0 | 7.0 | 0.02 | 0.65 | 0.65 | 96 | 1014.1 |
| 20260510132919 | 57 | 44 | 3.0 | 7.0 | 0.02 | 0.65 | 0.65 | 97 | 1014.2 |
| 20260510132418 | 57 | 60 | 3.0 | 7.0 | 0.02 | 0.65 | 0.65 | 97 | 1014.4 |
| 20260510131405 | 57 | 58 | 3.0 | 9.0 | 0.03 | 0.65 | 0.65 | 97 | 1014.5 |
| 20260510130902 | 57 | 70 | 3.0 | 9.0 | 0.03 | 0.65 | 0.65 | 97 | 1014.5 |
| 20260510130400 | 57 | 49 | 2.0 | 7.0 | 0.03 | 0.65 | 0.65 | 97 | 1014.5 |
| 20260510125902 | 57 | 26 | 2.0 | 7.0 | 0.03 | 0.65 | 0.65 | 97 | 1014.6 |
| 20260510125400 | 57 | 77 | 2.0 | 7.0 | 0.03 | 0.65 | 0.65 | 97 | 1014.5 |
| 20260510124902 | 57 | 37 | 2.0 | 5.0 | 0.03 | 0.65 | 0.65 | 97 | 1014.5 |
| 20260510124402 | 57 | 53 | 1.0 | 5.0 | 0.03 | 0.65 | 0.65 | 97 | 1014.7 |
| 20260510123902 | 57 | 48 | 1.0 | 4.0 | 0.02 | 0.63 | 0.63 | 98 | 1014.7 |
| 20260510123402 | 57 | 29 | 1.0 | 5.0 | 0.02 | 0.63 | 0.63 | 98 | 1014.7 |
| 20260510122903 | 57 | 55 | 1.0 | 5.0 | 0.02 | 0.63 | 0.63 | 98 | 1014.8 |
| 20260510121859 | 57 | 56 | 1.0 | 5.0 | 0.00 | 0.61 | 0.61 | 98 | 1014.8 |
| 20260510121359 | 57 | 54 | 1.0 | 5.0 | 0.00 | 0.61 | 0.61 | 98 | 1014.8 |
| 20260510120856 | 57 | 45 | 1.0 | 5.0 | 0.00 | 0.61 | 0.61 | 98 | 1014.7 |
| 20260510120358 | 57 | 52 | 2.0 | 6.0 | 0.00 | 0.61 | 0.61 | 98 | 1014.8 |
| 20260510115855 | 57 | 27 | 1.0 | 6.0 | 0.00 | 0.61 | 0.61 | 98 | 1014.9 |
| 20260510115358 | 57 | 39 | 0.0 | 3.0 | 0.00 | 0.61 | 0.61 | 98 | 1014.9 |
| 20260510114857 | 57 | 66 | 0.0 | 3.0 | 0.00 | 0.61 | 0.61 | 98 | 1015.0 |
| 20260510113859 | 57 | 101 | 0.0 | 2.0 | 0.01 | 0.61 | 0.61 | 98 | 1015.0 |
| 20260510113356 | 57 | 120 | 0.0 | 2.0 | 0.01 | 0.61 | 0.61 | 98 | 1015.0 |
| 20260510112855 | 57 | 98 | 1.0 | 5.0 | 0.01 | 0.61 | 0.61 | 98 | 1015.1 |
| 20260510112357 | 57 | 51 | 1.0 | 5.0 | 0.01 | 0.61 | 0.61 | 98 | 1015.1 |
| 20260510111855 | 57 | 93 | 0.0 | 3.0 | 0.01 | 0.61 | 0.61 | 98 | 1015.2 |
| 20260510111356 | 57 | 153 | 0.0 | 3.0 | 0.01 | 0.61 | 0.61 | 98 | 1015.2 |
| 20260510110857 | 56 | 97 | 0.0 | 2.0 | 0.01 | 0.61 | 0.61 | 98 | 1015.2 |
| 20260510105856 | 56 | 86 | 1.0 | 5.0 | 0.01 | 0.61 | 0.61 | 98 | 1015.2 |
| 20260510105357 | 56 | 75 | 1.0 | 5.0 | 0.01 | 0.61 | 0.61 | 98 | 1015.3 |
| 20260510104857 | 56 | 89 | 1.0 | 4.0 | 0.01 | 0.61 | 0.61 | 98 | 1015.3 |
| 20260510103355 | 56 | 75 | 2.0 | 6.0 | 0.01 | 0.61 | 0.61 | 98 | 1015.4 |
| 20260510102857 | 56 | 95 | 1.0 | 5.0 | 0.01 | 0.61 | 0.61 | 98 | 1015.4 |
| 20260510102358 | 56 | 144 | 1.0 | 5.0 | 0.01 | 0.61 | 0.61 | 98 | 1015.4 |
| 20260510101857 | 56 | 120 | 1.0 | 5.0 | 0.01 | 0.61 | 0.61 | 98 | 1015.4 |
| 20260510101356 | 56 | 153 | 1.0 | 5.0 | 0.02 | 0.61 | 0.61 | 98 | 1015.5 |
| 20260510100854 | 56 | 163 | 1.0 | 5.0 | 0.02 | 0.61 | 0.61 | 98 | 1015.5 |
| 20260510095857 | 57 | 110 | 1.0 | 3.0 | 0.03 | 0.61 | 0.61 | 98 | 1015.5 |
| 20260510095355 | 57 | 46 | 1.0 | 4.0 | 0.04 | 0.61 | 0.61 | 98 | 1015.6 |
| 20260510094853 | 56 | 11 | 1.0 | 4.0 | 0.04 | 0.61 | 0.61 | 98 | 1015.6 |
| 20260510094355 | 56 | 25 | 0.0 | 2.0 | 0.04 | 0.61 | 0.61 | 98 | 1015.5 |
| 20260510093856 | 56 | 22 | 0.0 | 2.0 | 0.03 | 0.60 | 0.61 | 98 | 1015.6 |
| 20260510092854 | 56 | 230 | 0.0 | 1.0 | 0.03 | 0.60 | 0.60 | 98 | 1015.9 |
| 20260510092348 | 56 | 210 | 0.0 | 1.0 | 0.03 | 0.60 | 0.60 | 98 | 1015.7 |
| 20260510090846 | 57 | 158 | 0.0 | 1.0 | 0.05 | 0.58 | 0.58 | 98 | 1015.4 |
| 20260510090344 | 56 | 176 | 0.0 | 1.0 | 0.05 | 0.58 | 0.58 | 98 | 1015.6 |
| 20260510085841 | 56 | 166 | 0.0 | 0.0 | 0.06 | 0.57 | 0.57 | 98 | 1015.6 |
| 20260510085337 | 56 | 45 | 0.0 | 1.0 | 0.06 | 0.57 | 0.57 | 98 | 1015.5 |
| 20260510084836 | 56 | 224 | 0.0 | 3.0 | 0.06 | 0.57 | 0.57 | 98 | 1015.5 |
| 20260510084334 | 56 | 236 | 0.0 | 3.0 | 0.06 | 0.57 | 0.57 | 98 | 1015.3 |
| 20260510083835 | 56 | 122 | 1.0 | 3.0 | 0.06 | 0.57 | 0.57 | 98 | 1015.2 |
| 20260510083333 | 56 | 101 | 0.0 | 3.0 | 0.06 | 0.57 | 0.57 | 98 | 1015.1 |
| 20260510082329 | 56 | 133 | 1.0 | 5.0 | 0.06 | 0.57 | 0.57 | 98 | 1015.2 |
| 20260510081332 | 56 | 124 | 1.0 | 7.0 | 0.05 | 0.55 | 0.55 | 98 | 1015.1 |
| 20260510080831 | 56 | 108 | 1.0 | 4.0 | 0.03 | 0.54 | 0.54 | 98 | 1015.1 |
| 20260510075828 | 56 | 108 | 1.0 | 5.0 | 0.02 | 0.52 | 0.52 | 98 | 1015.4 |
| 20260510075340 | 56 | 262 | 0.0 | 3.0 | 0.01 | 0.51 | 0.51 | 98 | 1015.5 |
| 20260510074828 | 56 | 127 | 0.0 | 1.0 | 0.00 | 0.50 | 0.50 | 98 | 1015.4 |
| 20260510073825 | 56 | 16 | 0.0 | 1.0 | 0.00 | 0.50 | 0.50 | 98 | 1015.5 |
| 20260510073323 | 56 | 359 | 0.0 | 2.0 | 0.00 | 0.50 | 0.50 | 98 | 1015.6 |
| 20260510072822 | 56 | 312 | 0.0 | 2.0 | 0.00 | 0.50 | 0.50 | 98 | 1015.5 |
| 20260510072320 | 56 | 126 | 0.0 | 2.0 | 0.00 | 0.50 | 0.50 | 98 | 1015.6 |
| 20260510071819 | 55 | 138 | 0.0 | 2.0 | 0.00 | 0.50 | 0.50 | 98 | 1015.6 |
| 20260510071315 | 55 | 115 | 0.0 | 0.0 | 0.00 | 0.50 | 0.50 | 98 | 1015.7 |
| 20260510070813 | 55 | 98 | 0.0 | 2.0 | 0.00 | 0.50 | 0.50 | 98 | 1015.6 |
| 20260510070312 | 55 | 236 | 0.0 | 2.0 | 0.00 | 0.50 | 0.50 | 98 | 1015.8 |
| 20260510065814 | 55 | 285 | 1.0 | 3.0 | 0.00 | 0.50 | 0.50 | 98 | 1015.8 |
| 20260510065311 | 55 | 270 | 1.0 | 3.0 | 0.00 | 0.50 | 0.50 | 98 | 1015.8 |
| 20260510064811 | 55 | 262 | 0.0 | 3.0 | 0.00 | 0.50 | 0.50 | 98 | 1015.8 |
| 20260510064307 | 55 | 202 | 0.0 | 3.0 | 0.00 | 0.50 | 0.50 | 98 | 1015.7 |
| 20260510063807 | 54 | 138 | 0.0 | 2.0 | 0.00 | 0.50 | 0.50 | 98 | 1015.7 |
| 20260510063309 | 54 | 191 | 0.0 | 0.0 | 0.00 | 0.50 | 0.50 | 98 | 1015.8 |
| 20260510062259 | 55 | 191 | 0.0 | 3.0 | 0.01 | 0.50 | 0.50 | 98 | 1015.9 |
| 20260510061800 | 55 | 262 | 0.0 | 3.0 | 0.01 | 0.50 | 0.50 | 98 | 1016.0 |
| 20260510055801 | 54 | 107 | 0.0 | 2.0 | 0.09 | 0.50 | 0.50 | 98 | 1015.9 |
| 20260510055257 | 54 | 96 | 0.0 | 1.0 | 0.09 | 0.50 | 0.50 | 98 | 1015.9 |
| 20260510054300 | 54 | 117 | 0.0 | 3.0 | 0.09 | 0.50 | 0.50 | 98 | 1016.2 |
| 20260510053301 | 54 | 100 | 0.0 | 2.0 | 0.13 | 0.50 | 0.50 | 98 | 1016.6 |
| 20260510052756 | 53 | 66 | 1.0 | 5.0 | 0.14 | 0.50 | 0.50 | 98 | 1016.4 |
| 20260510052258 | 53 | 76 | 1.0 | 5.0 | 0.15 | 0.50 | 0.50 | 98 | 1016.4 |
| 20260510051754 | 53 | 95 | 0.0 | 3.0 | 0.16 | 0.50 | 0.50 | 98 | 1016.2 |
| 20260510051248 | 53 | 94 | 0.0 | 3.0 | 0.16 | 0.50 | 0.50 | 98 | 1016.2 |
| 20260510050746 | 53 | 70 | 0.0 | 3.0 | 0.11 | 0.45 | 0.46 | 98 | 1016.6 |
| 20260510050247 | 53 | 240 | 1.0 | 3.0 | 0.08 | 0.42 | 0.42 | 98 | 1016.6 |
| 20260510045744 | 53 | 96 | 1.0 | 4.0 | 0.08 | 0.42 | 0.42 | 98 | 1016.2 |
| 20260510045245 | 53 | 73 | 1.0 | 4.0 | 0.09 | 0.42 | 0.42 | 98 | 1016.1 |
| 20260510044747 | 53 | 70 | 2.0 | 6.0 | 0.09 | 0.42 | 0.42 | 98 | 1016.2 |
| 20260510044245 | 53 | 73 | 2.0 | 6.0 | 0.09 | 0.42 | 0.42 | 98 | 1016.2 |
| 20260510043245 | 53 | 56 | 0.0 | 4.0 | 0.05 | 0.38 | 0.38 | 98 | 1016.2 |
| 20260510042742 | 53 | 33 | 0.0 | 1.0 | 0.03 | 0.36 | 0.36 | 98 | 1016.6 |
| 20260510042243 | 53 | 88 | 0.0 | 0.0 | 0.02 | 0.35 | 0.35 | 97 | 1016.9 |
| 20260510041742 | 53 | 87 | 0.0 | 0.0 | 0.01 | 0.34 | 0.34 | 97 | 1016.7 |
| 20260510041244 | 53 | 142 | 0.0 | 2.0 | 0.01 | 0.34 | 0.34 | 97 | 1016.5 |
| 20260510040737 | 53 | 142 | 0.0 | 2.0 | 0.01 | 0.34 | 0.34 | 97 | 1016.6 |
| 20260510040236 | 53 | 179 | 0.0 | 1.0 | 0.01 | 0.34 | 0.34 | 97 | 1016.7 |
| 20260510035733 | 53 | 141 | 0.0 | 1.0 | 0.01 | 0.34 | 0.34 | 97 | 1016.8 |
| 20260510035226 | 53 | 105 | 0.0 | 1.0 | 0.01 | 0.33 | 0.33 | 97 | 1016.6 |
| 20260510034720 | 53 | 105 | 0.0 | 2.0 | 0.02 | 0.33 | 0.33 | 97 | 1016.6 |
| 20260510034217 | 53 | 92 | 0.0 | 2.0 | 0.04 | 0.33 | 0.33 | 97 | 1016.7 |
| 20260510033715 | 53 | 133 | 0.0 | 3.0 | 0.05 | 0.33 | 0.33 | 97 | 1016.9 |
| 20260510033215 | 53 | 158 | 1.0 | 4.0 | 0.08 | 0.33 | 0.33 | 97 | 1016.9 |
| 20260510032214 | 53 | 101 | 1.0 | 5.0 | 0.17 | 0.33 | 0.33 | 97 | 1016.9 |
| 20260510031715 | 53 | 90 | 2.0 | 8.0 | 0.19 | 0.33 | 0.33 | 97 | 1016.9 |
| 20260510031216 | 53 | 131 | 2.0 | 8.0 | 0.20 | 0.33 | 0.33 | 97 | 1016.9 |
| 20260510030715 | 53 | 80 | 3.0 | 7.0 | 0.20 | 0.33 | 0.33 | 97 | 1016.9 |
| 20260510030214 | 53 | 65 | 3.0 | 8.0 | 0.23 | 0.33 | 0.33 | 97 | 1016.9 |
| 20260510025714 | 53 | 136 | 2.0 | 8.0 | 0.24 | 0.33 | 0.33 | 97 | 1017.2 |
| 20260510025217 | 52 | 106 | 2.0 | 6.0 | 0.26 | 0.32 | 0.32 | 97 | 1017.2 |
| 20260510024716 | 52 | 109 | 1.0 | 4.0 | 0.26 | 0.31 | 0.31 | 97 | 1017.4 |
| 20260510024216 | 53 | 108 | 0.0 | 3.0 | 0.27 | 0.29 | 0.30 | 97 | 1017.6 |
| 20260510023714 | 53 | 116 | 0.0 | 1.0 | 0.28 | 0.28 | 0.28 | 97 | 1017.5 |
| 20260510023213 | 53 | 98 | 0.0 | 1.0 | 0.24 | 0.25 | 0.26 | 96 | 1017.8 |
| 20260510022714 | 53 | 124 | 0.0 | 1.0 | 0.21 | 0.21 | 0.22 | 96 | 1018.0 |
| 20260510021713 | 53 | 101 | 1.0 | 5.0 | 0.14 | 0.14 | 0.15 | 96 | 1018.0 |
| 20260510021214 | 53 | 146 | 1.0 | 9.0 | 0.13 | 0.13 | 0.13 | 96 | 1018.5 |
| 20260510020712 | 53 | 234 | 2.0 | 9.0 | 0.13 | 0.13 | 0.13 | 95 | 1018.6 |
| 20260510020220 | 53 | 265 | 2.0 | 8.0 | 0.10 | 0.10 | 0.10 | 95 | 1018.6 |
| 20260510015709 | 53 | 231 | 1.0 | 6.0 | 0.09 | 0.09 | 0.09 | 94 | 1018.5 |
| 20260510015208 | 55 | 217 | 1.0 | 5.0 | 0.06 | 0.06 | 0.07 | 92 | 1018.1 |
| 20260510014708 | 56 | 203 | 1.0 | 5.0 | 0.05 | 0.05 | 0.05 | 86 | 1018.0 |
| 20260510014211 | 56 | 217 | 0.0 | 4.0 | 0.02 | 0.02 | 0.03 | 84 | 1017.9 |
| 20260510013709 | 57 | 157 | 0.0 | 2.0 | 0.01 | 0.01 | 0.02 | 83 | 1017.7 |
| 20260510013208 | 58 | 206 | 0.0 | 1.0 | 0.01 | 0.01 | 0.01 | 82 | 1017.6 |
| 20260510012711 | 58 | 205 | 0.0 | 0.0 | 0.00 | 0.00 | 0.00 | 81 | 1017.6 |
| 20260510012209 | 58 | 209 | 0.0 | 1.0 | 0.00 | 0.00 | 0.00 | 79 | 1017.5 |
| 20260510011707 | 58 | 207 | 0.0 | 1.0 | 0.00 | 0.00 | 0.00 | 79 | 1017.5 |
| 20260510011206 | 58 | 214 | 0.0 | 1.0 | 0.00 | 0.00 | 0.00 | 78 | 1017.5 |
| 20260510010704 | 59 | 207 | 0.0 | 1.0 | 0.00 | 0.00 | 0.00 | 78 | 1017.2 |
| 20260510010206 | 59 | 220 | 0.0 | 1.0 | 0.00 | 0.00 | 0.00 | 77 | 1017.1 |
| 20260510005706 | 59 | 156 | 0.0 | 1.0 | 0.00 | 0.00 | 0.00 | 77 | 1017.2 |
| 20260510005204 | 59 | 153 | 0.0 | 2.0 | 0.00 | 0.00 | 0.00 | 76 | 1017.2 |
| 20260510004205 | 59 | 155 | 0.0 | 1.0 | 0.00 | 0.00 | 0.00 | 76 | 1017.1 |
| 20260510003659 | 59 | 128 | 0.0 | 1.0 | 0.00 | 0.00 | 0.00 | 76 | 1017.1 |
| 20260510003200 | 59 | 119 | 0.0 | 0.0 | 0.00 | 0.00 | 0.00 | 76 | 1017.1 |
| 20260510002701 | 59 | 122 | 0.0 | 0.0 | 0.00 | 0.00 | 0.00 | 75 | 1017.2 |
| 20260510002201 | 59 | 124 | 0.0 | 0.0 | 0.00 | 0.00 | 0.00 | 75 | 1017.2 |
| 20260510001658 | 59 | 124 | 0.0 | 1.0 | 0.00 | 0.00 | 0.00 | 75 | 1017.2 |
| 20260510001156 | 59 | 143 | 0.0 | 1.0 | 0.00 | 0.00 | 0.00 | 75 | 1017.4 |
| 20260510000656 | 59 | 131 | 0.0 | 0.0 | 0.00 | 0.00 | 0.00 | 73 | 1017.5 |
| 20260510000156 | 59 | 103 | 0.0 | 0.0 | 0.00 | 0.00 | 0.00 | 72 | 1017.4 |
| 20260509235158 | 59 | 123 | 0.0 | 1.0 | 0.00 | 0.00 | 0.00 | 68 | 1017.8 |
| 20260509234659 | 59 | 123 | 0.0 | 1.0 | 0.00 | 0.00 | 0.00 | 68 | 1017.8 |
| 20260509234157 | 59 | 98 | 0.0 | 3.0 | 0.00 | 0.00 | 0.00 | 67 | 1017.8 |
| 20260509233656 | 59 | 80 | 1.0 | 4.0 | 0.00 | 0.00 | 0.00 | 64 | 1017.6 |
| 20260509233152 | 60 | 100 | 1.0 | 4.0 | 0.00 | 0.00 | 0.00 | 64 | 1017.7 |
| 20260509232645 | 61 | 119 | 0.0 | 3.0 | 0.00 | 0.00 | 0.00 | 63 | 1018.0 |
| 20260509232140 | 61 | 144 | 0.0 | 1.0 | 0.00 | 0.00 | 0.00 | 63 | 1018.0 |
| 20260509231640 | 61 | 144 | 0.0 | 1.0 | 0.00 | 0.00 | 0.00 | 63 | 1018.0 |
| 20260509231138 | 60 | 23 | 0.0 | 0.0 | 0.00 | 0.00 | 0.00 | 66 | 1017.9 |
| 20260509230638 | 59 | 340 | 0.0 | 0.0 | 0.00 | 0.00 | 0.00 | 71 | 1018.0 |
| 20260509230135 | 59 | 340 | 0.0 | 0.0 | 0.00 | 0.00 | 0.00 | 74 | 1018.0 |
| 20260509225635 | 60 | 340 | 0.0 | 1.0 | 0.00 | 0.00 | 0.00 | 75 | 1018.0 |
| 20260509225132 | 60 | 340 | 0.0 | 1.0 | 0.00 | 0.00 | 0.00 | 76 | 1018.0 |
| 20260509224631 | 60 | 338 | 0.0 | 1.0 | 0.00 | 0.00 | 0.00 | 73 | 1017.9 |
| 20260509224128 | 60 | 312 | 0.0 | 1.0 | 0.00 | 0.00 | 0.00 | 71 | 1017.9 |
| 20260509221629 | 59 | 28 | 0.0 | 0.0 | 0.00 | 0.00 | 0.00 | 71 | 1017.6 |
| 20260509221126 | 59 | 27 | 0.0 | 0.0 | 0.00 | 0.00 | 0.00 | 74 | 1017.3 |
| 20260509220627 | 58 | 24 | 0.0 | 0.0 | 0.00 | 0.00 | 0.00 | 75 | 1017.3 |
| 20260509220126 | 59 | 39 | 0.0 | 0.0 | 0.00 | 0.00 | 0.00 | 76 | 1017.3 |
| 20260509215622 | 59 | 28 | 0.0 | 0.0 | 0.00 | 0.01 | 0.00 | 78 | 1017.4 |
| 20260509214620 | 58 | 25 | 1.0 | 3.0 | 0.00 | 0.01 | 0.00 | 81 | 1017.6 |